STARLINK-3796, 52372

Orbit data source: Space-Track

STARLINK-3796, 52372 is a payload satellite owned by SpaceX/Seattle (US) in LEO that was launched on Fri, 29 Apr 2022 UTC via an FALCON 9 launch vehicle from the Air Force Eastern Test Range (AFETR). Payload-class satellites include a variety of spacecraft equipped with specific instruments for various scientific and technological missions. These include communications satellites like Starlink; space stations such as the ISS; scientific satellites like the Hubble; Earth observation satellites from companies like Planet Labs, Umbra, and HawkEye 360; GPS; miniature CubeSats for education and research; and military/defense satellites.

Loading next visibility...
Identifier
52372, 2022-045AT
Orbit
LEO
Country
Flag of USUS
Related business
Manufacturer
SpaceX/Seattle
Mission
Operational Commercial Communications
Bus & Motor
STARLINK, Unknown motor
Mass
297 kg wet, ~275 kg dry
Launch date (UTC)
2022-04-29 (4 years ago)
Launch vehicle
FALCON 9
Launch site
Air Force Eastern Test Range (AFETR)
Object type
Payload
Rocket body
Debris
Shape & HBR
Box + 1 Pan, 10.1 m
Radar Cross Section
11.087 m², Large (>1 m²)

Expand to show TLE details & history
Last TLE update: 2 days ago

TLE from 2 days ago
0 STARLINK-3796
1 52372U 22045AT  26170.96819593  .00000519  00000-0  50722-4 0  9993
2 52372  53.1613  89.8638 0001376  91.5383 268.5766 15.08837967231356
Epoch: 2026-06-19T23:14Z
TLE epoch observation values (Epoch: 2026-06-19T23:14:12.128Z)
Latitude
-0.00002°
Longitude
-166.87631°
Altitude
540.665 km
Speed
7.593 km/s
True Right ascension
05h 59m 27s
True Declination
0° 00' 00"
Sunlit
Object was in daylight at epoch
Visualization orbit readout
Latitude
Unknown
Longitude
Unknown
Altitude
Unknown
Speed
Unknown
Apparent Right ascension
Unknown
Apparent Declination
Unknown
Sunlit
N/A
Visualization observer readout
Local Sidereal Time
21:40:49
Azimuth
Unknown
Elevation
Unknown
Doppler factor
Unknown
Orbital elements
Apogee altitude
540.955 km
Perigee altitude
539.052 km
Semi-major axis
6,918.141 km
Eccentricity
0.00014
Inclination
53.1613°
RAAN
89.8638°
Arg. of periapsis
91.5383°
True anomaly
268.56084°
Mean anomaly
268.5766°
Eccentric anomaly
268.56872°
Mean motion
3.77189 °/min
Orbital period
95.44 mins
BSTAR
0.000050722
Loading maneuver chart data...
Computing Atmospheric mass density...
Loading historical data...
Loading historical data...
Loading historical data...
Loading historical data...
Loading historical data...
Loading historical data...
Loading historical data...

Documentation

Showing up to 5 results
|